Total_Precipitation_Accumulation
2.07 2.67 3.32 3.91 4.60 5.34 5.82 5.69 5.02 4.43 3.78 3.23 2.64 2.44 2.21 2.00 1.75 1.52 1.31 1.20 1.06 0.98 0.93 0.83 0.86 0.73 0.73 0.74 0.72 0.82 0.91 0.93 0.97 1.17 1.21 1.02 0.90 0.94 0.95 0.91 1.00 1.02 1.09
2.05 2.80 3.41 3.62 3.60 3.81 3.99 3.52 3.26 3.09 2.65 2.37 2.21 1.99 1.89 1.70 1.48 1.35 1.23 0.98 0.93 0.93 0.83 0.85 0.81 0.75 0.76 0.71 0.72 0.79 0.85 0.87 0.88 1.01 1.14 1.07 1.09 0.99 0.74 0.89 0.92 0.94 1.13
2.16 2.65 2.80 2.80 2.68 2.62 2.58 2.30 2.16 2.32 2.21 2.16 2.07 1.92 1.93 1.88 1.63 1.31 1.19 0.96 0.82 0.81 0.81 0.82 0.83 0.83 0.68 0.69 0.74 0.71 0.74 0.76 0.75 0.78 0.94 1.00 1.06 0.94 0.79 0.79 0.80 0.89 1.08
2.11 2.09 1.69 1.53 1.66 1.73 1.80 1.99 2.00 2.02 1.91 1.90 1.67 1.46 1.33 1.25 1.16 1.12 1.07 1.03 0.88 0.80 0.75 0.75 0.85 0.82 0.71 0.78 0.60 0.59 0.68 0.73 0.63 0.60 0.63 0.65 0.79 0.91 0.98 0.86 0.78 0.83 0.87
1.17 0.94 0.81 0.85 1.07 1.30 1.53 1.90 1.95 1.84 1.72 1.66 1.61 1.60 1.47 1.42 1.32 1.26 1.29 1.23 1.16 1.02 0.80 0.70 0.79 0.82 0.80 0.86 0.75 0.78 0.67 0.62 0.58 0.55 0.59 0.61 0.57 0.60 0.81 0.95 0.89 0.84 0.69
0.54 0.55 0.63 0.81 1.02 1.18 1.30 1.49 1.64 1.76 1.79 1.80 1.79 1.69 1.60 1.57 1.43 1.31 1.20 1.15 1.11 1.04 0.93 0.85 0.92 0.91 0.84 0.85 0.80 0.81 0.75 0.70 0.68 0.57 0.54 0.73 0.67 0.54 0.64 0.70 0.75 0.75 0.57
0.39 0.54 0.61 0.78 0.89 1.01 1.04 1.12 1.24 1.41 1.51 1.58 1.66 1.66 1.63 1.58 1.40 1.30 1.16 1.09 0.96 0.88 0.89 0.94 0.98 0.93 0.93 0.85 0.79 0.79 0.81 0.88 0.88 0.70 0.55 0.56 0.65 0.57 0.55 0.59 0.59 0.63 0.59
0.25 0.30 0.35 0.44 0.57 0.75 0.93 1.06 1.08 1.08 1.08 1.11 1.27 1.42 1.43 1.41 1.35 1.34 1.13 1.02 0.95 0.92 0.96 0.99 0.90 0.86 0.85 0.81 0.84 0.75 0.73 0.81 0.89 0.81 0.85 0.76 0.59 0.63 0.60 0.61 0.71 0.77 0.79
0.23 0.22 0.23 0.29 0.38 0.44 0.58 0.78 0.84 0.83 0.84 0.88 0.98 1.05 1.12 1.23 1.30 1.24 1.05 0.90 0.92 0.92 0.92 0.84 0.81 0.80 0.80 0.84 0.89 0.86 0.82 0.82 0.75 0.75 0.91 0.87 0.71 0.64 0.63 0.63 0.74 0.98 0.99
0.20 0.21 0.23 0.25 0.28 0.31 0.43 0.58 0.72 0.75 0.75 0.77 0.83 0.81 0.94 1.03 1.11 1.09 1.02 0.88 0.86 0.91 0.90 0.83 0.79 0.79 0.73 0.74 0.82 0.81 0.83 0.88 0.85 0.81 0.88 0.93 0.91 0.83 0.79 0.77 0.82 0.99 1.06
0.23 0.25 0.22 0.28 0.25 0.24 0.31 0.43 0.60 0.67 0.62 0.64 0.70 0.77 0.85 0.98 1.04 1.02 1.02 0.95 0.92 0.92 0.90 0.86 0.89 0.86 0.80 0.78 0.80 0.79 0.83 0.88 0.96 0.99 0.98 0.98 1.05 1.11 1.03 1.00 1.01 1.07 1.19
0.26 0.27 0.22 0.24 0.19 0.21 0.27 0.36 0.43 0.51 0.54 0.59 0.67 0.73 0.77 0.88 1.00 0.97 1.00 1.03 1.00 0.95 0.89 0.87 0.92 0.87 0.82 0.83 0.79 0.78 0.81 0.88 0.98 1.10 1.24 1.25 1.19 1.17 1.10 1.12 1.14 1.23 1.40
0.31 0.24 0.22 0.21 0.17 0.18 0.22 0.29 0.39 0.48 0.51 0.55 0.65 0.74 0.72 0.78 0.90 0.96 0.96 0.99 1.01 1.04 1.04 0.97 0.93 0.92 0.92 0.93 0.85 0.81 0.81 0.82 0.86 0.98 1.24 1.44 1.59 1.49 1.30 1.19 1.15 1.23 1.34
0.24 0.22 0.20 0.20 0.24 0.24 0.26 0.33 0.45 0.47 0.52 0.55 0.62 0.70 0.74 0.82 0.91 0.94 0.95 0.98 0.98 1.04 1.10 1.11 1.08 1.05 1.01 0.95 0.92 0.96 0.96 0.92 0.87 0.91 1.00 1.13 1.33 1.49 1.54 1.39 1.26 1.24 1.35
0.27 0.24 0.24 0.25 0.26 0.30 0.34 0.42 0.54 0.56 0.58 0.71 0.81 0.87 0.87 0.92 0.96 0.98 0.98 1.06 1.08 1.10 1.24 1.29 1.26 1.23 1.17 1.05 1.07 1.15 1.07 1.07 1.02 0.98 0.96 0.92 1.00 1.13 1.27 1.32 1.40 1.39 1.37
0.29 0.27 0.28 0.31 0.29 0.31 0.39 0.46 0.55 0.62 0.74 1.01 1.14 1.16 1.19 1.22 1.22 1.20 1.15 1.21 1.29 1.42 1.48 1.44 1.40 1.38 1.25 1.28 1.23 1.21 1.18 1.20 1.18 1.14 1.07 0.98 0.90 0.91 0.98 1.05 1.14 1.29 1.34
0.35 0.35 0.38 0.43 0.41 0.41 0.45 0.48 0.52 0.62 0.79 0.98 1.14 1.23 1.26 1.29 1.35 1.36 1.36 1.38 1.43 1.48 1.52 1.58 1.58 1.55 1.60 1.51 1.25 1.20 1.19 1.23 1.27 1.32 1.32 1.09 0.90 0.94 0.91 0.98 1.00 1.02 1.12
0.44 0.48 0.49 0.53 0.53 0.54 0.53 0.59 0.71 0.82 0.92 1.04 1.16 1.30 1.35 1.41 1.44 1.38 1.32 1.31 1.34 1.34 1.32 1.29 1.28 1.35 1.35 1.29 1.10 1.04 0.99 1.09 1.14 1.14 1.15 1.11 0.98 0.91 0.90 0.92 0.90 0.86 0.87
0.51 0.55 0.60 0.62 0.67 0.73 0.73 0.74 0.84 0.98 1.10 1.18 1.31 1.42 1.49 1.58 1.53 1.41 1.35 1.26 1.24 1.16 1.10 1.08 1.10 1.12 1.17 1.14 1.01 0.97 0.91 0.94 0.95 0.93 0.96 0.99 0.92 0.87 0.73 0.74 0.77 0.76 0.74
0.53 0.58 0.68 0.73 0.77 0.87 0.91 0.91 0.95 1.01 1.10 1.16 1.25 1.36 1.44 1.57 1.60 1.50 1.45 1.39 1.37 1.26 1.20 1.15 1.14 1.14 1.23 1.28 1.09 1.01 0.93 0.95 0.96 1.04 1.07 1.03 0.91 0.81 0.64 0.64 0.70 0.69 0.66
0.52 0.55 0.62 0.73 0.78 0.85 0.93 1.01 1.01 0.98 0.99 0.98 0.98 1.11 1.25 1.39 1.45 1.46 1.44 1.48 1.47 1.39 1.25 1.12 1.05 1.04 1.14 1.26 1.10 0.96 0.88 0.94 1.03 1.12 1.20 1.14 0.96 0.73 0.59 0.54 0.55 0.52 0.54
0.50 0.55 0.59 0.66 0.74 0.85 0.99 1.09 1.07 1.03 1.02 1.02 1.08 1.14 1.19 1.19 1.17 1.23 1.25 1.31 1.38 1.36 1.26 1.10 0.97 0.92 0.90 0.88 0.90 0.76 0.69 0.73 0.85 0.99 1.13 1.14 0.97 0.76 0.60 0.50 0.44 0.41 0.38
0.50 0.47 0.52 0.60 0.71 0.87 1.01 1.12 1.10 1.15 1.15 1.12 1.17 1.20 1.21 1.21 1.21 1.20 1.19 1.19 1.16 1.09 1.00 0.91 0.89 0.88 0.83 0.76 0.69 0.57 0.49 0.51 0.64 0.78 1.03 1.11 0.99 0.86 0.71 0.62 0.55 0.45 0.38
0.46 0.45 0.44 0.50 0.60 0.67 0.76 0.89 0.94 1.03 1.13 1.12 1.05 0.97 0.95 0.96 1.01 1.06 1.07 1.09 1.05 1.00 0.94 0.88 0.89 0.86 0.81 0.73 0.68 0.63 0.53 0.53 0.64 0.71 0.86 0.99 1.02 0.92 0.85 0.75 0.61 0.49 0.44
0.48 0.47 0.47 0.51 0.54 0.58 0.62 0.70 0.80 0.92 1.09 1.14 1.07 1.01 0.98 0.95 0.95 0.98 1.03 1.01 1.00 0.96 0.90 0.87 0.93 0.92 0.88 0.82 0.75 0.74 0.72 0.69 0.73 0.71 0.80 0.93 1.03 1.04 1.00 0.96 0.85 0.73 0.66
0.51 0.56 0.58 0.58 0.55 0.56 0.62 0.68 0.78 0.92 1.06 1.08 0.98 0.97 0.98 0.98 0.96 0.93 0.98 1.02 0.91 0.92 0.88 0.89 0.92 0.94 0.87 0.76 0.63 0.61 0.60 0.55 0.52 0.52 0.67 0.84 1.00 1.12 1.17 1.19 1.13 1.01 0.91